Showing default

OPS 9347 (IDSCS 25), 3290

Orbit data source: Space-Track

OPS 9347 (IDSCS 25), 3290 is a payload satellite owned by SAMSO (US) in GEO that was launched on Thu, 13 Jun 1968 UTC via a TITAN IIIC launch vehicle from the Air Force Eastern Test Range (AFETR). Payload-class satellites include a variety of spacecraft equipped with specific instruments for various scientific and technological missions. These include communications satellites like Starlink; space stations such as the ISS; scientific satellites like the Hubble; Earth observation satellites from companies like Planet Labs, Umbra, and HawkEye 360; GPS; miniature CubeSats for education and research; and military/defense satellites.

Loading next visibility...
Identifier
3290, 1968-050G
Orbit
GEO
Last TLE update
1 day ago
Origin
Manufacturer
Philco-Ford
Mission
Non-operational Defense Communications
Bus & Motor
IDCSP, Unknown motor
Mass
45 kg wet, 45 kg dry
Launch date (UTC)
1968-06-13 (57 years ago)
Launch vehicle
TITAN IIIC
Launch site
Air Force Eastern Test Range (AFETR)
Object type
Payload
Rocket body
Debris
Shape & HBR
Poly, 0.9 m
Radar Cross Section
0.926 m², Medium (>0.1 m² and < 1m²)

Expand to show TLE details & history

TLE from 1 day ago
0 OPS 9347 (IDSCS 25)
1 03290U 68050G   25128.12725020 -.00000046  00000-0  00000-0 0  9991
2 03290   6.1189  57.7262 0059154 124.5672 243.5257  1.07034652 42801
Epoch: 2025-05-08T03:03Z
Definitive object data (Epoch: 2025-05-08T03:03:14.417Z)
Latitude
0.80676°
Longitude
153.16263°
Altitude
34,099.217 km
Speed
3.134 km/s
True Right ascension
04h 20m 41s
True Declination
0° 48' 21"
Sunlit
Object was in daylight at TLE epoch
Visualization TLE readout
Latitude
5.67973°
Longitude
-146.19888°
Altitude
33,857.87 km
Speed
3.153 km/s
Apparent Right ascension
07h 55m 24s
Apparent Declination
0° 08' 11"
Sunlit
Object is in daylight
Visualization observer readout
Local Sidereal Time
13:23:56
Azimuth
264.827° W
Elevation
5.939°
Doppler factor
1
Orbital elements
Apogee altitude
34,231.163 km
Perigee altitude
33,753.548 km
Semi-major axis
40,370.492 km
Eccentricity
0.0059154
Inclination
6.1189°
RAAN
57.7262°
Arg. of periapsis
124.5672°
True anomaly
242.92093°
Mean anomaly
243.5257°
Eccentric anomaly
243.22312°
Mean motion
0.26758 °/min
BSTAR
Unknown
Orbital period
1345.41 mins
Loading historical data...
3290 neighbors
Loading maneuver chart data...
Loading SW <> Apogee altitude chart data...
Loading historical data...
Loading historical data...
Loading historical data...
Loading historical data...
Loading historical data...
Loading historical data...
Loading historical data...

OPS 9347 (IDSCS 25) Visibility forecast

Observer location: undefined°, undefined°

Span
Click to sort rows by Start time (UTC) header in descending order
Start Az.
Max El. time (UTC)
Max El. Az.
Max El.
End time (UTC)
End Az.
576 mins2025-05-09 19:39:17.607Z245.442° WSW2025-05-10 05:15:17.607Z247.073° WSW23.191°2025-05-10 05:15:17.607Z247.073° WSW
|